Location: Tom
(33.0437°N, 96.9452°W)
Time: 00:39:31
(UTC-06:00)

Envisat - Pass Details

Date: 31 January 2019
Orbit: 764 x 766 km, 98.2° (Epoch: 16 February)

Event Time Altitude Azimuth Distance (km) Brightness Sun altitude
Rises 18:31:05 0° 141° (SE) 3,218 6.0 -7.2°
Reaches altitude 10° 18:33:36 10° 131° (SE) 2,296 5.2 -7.7°
Maximum altitude 18:38:00 31° 71° (ENE) 1,325 3.7 -8.6°
Drops below altitude 10° 18:42:25 10° 10° (N) 2,306 5.2 -9.5°
Sets 18:44:56 0° 1° (N) 3,236 6.1 -10.0°
